Location: Unspecified
(48.2082°N, 0.0000°E)
Time: 03:14:57
(UTC+00:00)

Tiros 1 despin weight - Pass Details

Date: 27 June 2019
Orbit: 594 x 642 km, 48.2° (Epoch: 21 July)

Event Time Altitude Azimuth Distance (km) Brightness Sun altitude
Rises 01:06:08 0° 279° (W) 2,846 ? -17.1°
Reaches altitude 10° 01:08:26 10° 278° (W) 1,938 ? -17.0°
Maximum altitude 01:12:52 80° 192° (SSW) 609 ? -16.8°
Drops below altitude 10° 01:17:16 10° 106° (ESE) 1,924 ? -16.5°
Sets 01:19:33 0° 105° (ESE) 2,825 ? -16.4°
